Flag for France Weather past 2 weeks in Douai, France

Now
54 °F

Drizzle. Low clouds.


Feels Like: 51 °F
Forecast: 42 / 54 °F
Wind: 9 mph from Southwest

Location: Lille Airport

Current Time: Dec 18, 2014 at 5:09:05 AM

Latest Report: Dec 18, 2014 at 4:30 AM


Visibility: 4 mi

Pressure: 29.86 "Hg

Humidity: 94%

Dew point: 52 °F

Location of DouaiLocation

Historic Weather in Douai — Graph

°F

Douai temperature yesterday

Maximum temperature yesterday: 54 °F (at 1:30 PM)
Minimum temperature yesterday: 37 °F (at 12:00 AM)
Average temperature yesterday: 47 °F

Past Weeks' High & Low Weather Summary

 TemperatureHumidityPressure
High54 °F (Dec 17, 1:30 PM)100% (Dec 3, 7:00 AM)30.39 "Hg (Dec 3, 7:00 AM)
Low28 °F (Dec 14, 5:00 AM)58% (Dec 10, 2:00 PM)29.42 "Hg (Dec 12, 12:30 PM)
Average40 °F91%29.99 "Hg
* Reported Dec 3 4:00 AM — Dec 18 4:00 AM, Douai, Weather by CustomWeather, © 2014

Note: Actual official high and low records may vary slightly from our data, if they occured in-between our weather recording intervals... More about our weather records

Advertising

Douai weather history for previous 24 hours

 ConditionsComfort  
Time TempWeatherWind HumidityBarometerVisibility
4:00 AM
Dec 18
52 °FLight rain. Low clouds.9 mph100%29.83 "Hg4 mi
3:30 AM52 °FLow clouds.9 mph100%29.86 "HgN/A
3:00 AM52 °FDrizzle. Low clouds.9 mph100%29.86 "Hg4 mi
2:30 AM52 °FLow clouds.9 mph100%29.83 "Hg5 mi
2:00 AM52 °FDrizzle. Mostly cloudy.12 mph100%29.83 "Hg4 mi
1:30 AM52 °FDrizzle. Mostly cloudy.9 mph100%29.83 "Hg5 mi
1:00 AM52 °FLight rain. Low clouds.9 mph100%29.83 "Hg5 mi
12:30 AM52 °FPassing clouds.9 mph100%29.83 "Hg5 mi
12:00 AM52 °FLight rain. Passing clouds.10 mph100%29.83 "Hg2 mi
11:30 PM
Dec 17
52 °FLight rain. Passing clouds.9 mph94%29.83 "Hg4 mi
11:00 PM50 °FLight rain. Passing clouds.6 mph94%29.83 "Hg4 mi
10:30 PM50 °FLight rain. Passing clouds.5 mph94%29.83 "Hg4 mi
10:00 PM48 °FPassing clouds.6 mph100%29.83 "Hg5 mi
9:30 PM48 °FPassing clouds.6 mph100%29.83 "Hg5 mi
9:00 PM48 °FPartly cloudy.7 mph94%29.83 "Hg5 mi
8:30 PM48 °FClear.8 mph100%29.83 "Hg5 mi
8:00 PM50 °FPartly cloudy.7 mph94%29.83 "Hg4 mi
7:30 PM48 °FPassing clouds.7 mph100%29.83 "HgN/A
7:00 PM50 °FClear.8 mph94%29.80 "Hg10 mi
6:30 PM50 °FPassing clouds.6 mph94%29.80 "HgN/A
6:00 PM50 °FPartly cloudy.7 mph94%29.77 "HgN/A
5:30 PM52 °FPartly cloudy.8 mph94%29.77 "HgN/A
5:00 PM52 °FPassing clouds.9 mph94%29.74 "HgN/A
4:30 PM52 °FPartly sunny.9 mph94%29.74 "HgN/A
4:00 PM54 °FBroken clouds.9 mph88%29.74 "HgN/A
3:30 PM54 °FPartly sunny.10 mph88%29.71 "HgN/A
3:00 PM54 °FBroken clouds.10 mph88%29.71 "HgN/A
2:30 PM54 °FBroken clouds.14 mph88%29.71 "HgN/A
2:00 PM52 °FMostly cloudy.14 mph94%29.68 "HgN/A
1:30 PM54 °FPartly sunny.14 mph88%29.68 "HgN/A
1:00 PM52 °FCloudy.14 mph94%29.68 "HgN/A
12:30 PM52 °FMostly cloudy.12 mph94%29.68 "HgN/A
12:00 PM52 °FMostly cloudy.12 mph94%29.68 "HgN/A
11:30 AM50 °FOvercast.9 mph100%29.68 "HgN/A
11:00 AM48 °FOvercast.8 mph100%29.68 "HgN/A
10:30 AM48 °FMostly cloudy.12 mph100%29.65 "HgN/A
10:00 AM46 °FDrizzle. Low clouds.16 mph100%29.65 "HgN/A
9:30 AM46 °FDrizzle. Low clouds.15 mph100%29.65 "Hg2 mi
9:00 AM46 °FLight rain. Low clouds.15 mph93%29.65 "Hg5 mi
8:30 AM45 °FLow clouds.17 mph100%29.65 "HgN/A
8:00 AM43 °FLight rain. Low clouds.20 mph100%29.65 "Hg4 mi
7:30 AM43 °FLight rain. Low clouds.21 mph100%29.68 "Hg4 mi
7:00 AM43 °FLight rain. Low clouds.18 mph100%29.68 "Hg3 mi
6:30 AM43 °FLight rain. Low clouds.18 mph93%29.71 "Hg3 mi
6:00 AM43 °FLight rain. Mostly cloudy.18 mph93%29.71 "Hg4 mi
5:30 AM41 °FLight rain. Mostly cloudy.17 mph100%29.74 "Hg4 mi
5:00 AM41 °FLight rain. Mostly cloudy.16 mph100%29.77 "Hg4 mi
Weather by CustomWeather, © 2014

See weather overviewHow to use our weather pages